#timestamp,LO_Frequency,Hit,StdDev 
1656867615.3,286047001.0,N
1656867635.2,286046999.9,N
1656867655.9,286047000.9,N
1656867675.7,286047001.0,N
1656867695.6,286047000.7,N
1656867715.4,286047000.2,N
1656867735.2,286046999.7,N
1656867755.1,286047002.8,N
1656867756.0,286047002.8,N
1656867775.8,286047002.7,N
1656867795.7,286047002.8,N
1656867815.5,286047002.2,N
1656867835.3,286047000.3,N
1656867855.2,286047001.0,N
1656867875.0,286047001.0,N
1656867875.9,286047001.0,N
1656867895.8,286047000.3,N
1656867915.6,286047000.1,N
1656867935.4,286047000.5,N
1656867955.3,286047000.0,N
1656867975.1,286046999.9,N
1656867995.8,286046999.7,N
1656868015.7,286047000.4,N
1656868035.5,286047002.1,N
1656868055.4,286047002.2,N
1656868075.2,286047002.8,N
1656868095.0,286046999.8,N
1656868095.9,286046999.8,N
1656868115.8,286047000.5,N
1656868135.6,286047000.6,N
1656868155.4,286047000.4,N
1656868175.3,286047000.6,N
1656868195.1,286047001.2,N
1656868215.8,286046998.7,N
1656868235.7,286046998.2,N
1656868255.5,286047000.7,N
1656868275.4,286047000.0,N
1656868295.2,286047000.8,N
1656868315.0,286047001.0,N
1656868315.9,286047001.0,N
1656868335.8,286047000.9,N
1656868355.6,286047000.0,N
1656868375.4,286046999.9,N
1656868395.3,286047000.4,N
1656868415.1,286047000.5,N
1656868435.9,286047000.4,N
1656868455.7,286047000.8,N
1656868475.5,286046998.8,N
1656868495.4,286046998.4,N
1656868515.2,286046998.2,N
1656868535.0,286046999.4,N
1656868535.9,286046999.4,N
1656868555.8,286046998.9,N
1656868575.6,286046998.4,N
1656868595.5,286046998.4,N
1656868615.3,286046998.2,N
1656868635.1,286047001.0,N
1656868655.9,286046998.5,N
1656868675.7,286047000.1,N
1656868695.5,286047000.6,N
1656868715.4,286046998.1,N
1656868735.2,286047001.2,N
1656868755.1,286046998.6,N
1656868756.0,286046998.6,N
1656868775.8,286047001.2,N
1656868795.6,286047000.9,N
1656868815.5,286047000.6,N
1656868835.3,286047000.9,N
1656868855.1,286047000.8,N
1656868875.9,286047001.1,N
1656868895.7,286047000.8,N
1656868915.6,286046998.2,N
1656868935.4,286047000.7,N
1656868955.2,286047000.3,N
1656868975.1,286047000.9,N
1656868976.0,286047000.9,N
1656868995.8,286047000.9,N
1656869015.6,286047000.9,N
1656869035.5,286047000.4,N
1656869055.3,286047000.3,N
1656869075.2,286047000.5,N
1656869095.9,286047000.7,N
1656869115.7,286047000.8,N
1656869135.6,286047000.3,N
1656869155.4,286047000.6,N
1656869175.2,286047000.4,N
1656869195.1,286047000.9,N
1656869196.0,286047000.9,N
1656869215.8,286047001.0,N
1656869235.7,286047001.0,N
1656869255.5,286047001.0,N
1656869275.3,286047000.6,N
1656869295.2,286047000.9,N
1656869315.9,286047000.0,N
1656869335.7,286047000.8,N
1656869355.6,286047000.9,N
1656869375.4,286047000.9,N
1656869395.3,286047000.9,N
1656869415.1,286047000.8,N
1656869416.0,286047000.8,N
1656869435.8,286047000.6,N
1656869455.7,286047000.0,N
1656869475.5,286046999.7,N
1656869495.3,286047000.0,N
1656869515.2,286047000.5,N
1656869535.0,286047000.7,N
1656869535.9,286047000.7,N
1656869555.8,286047000.1,N
1656869575.6,286047002.7,Y
1656869595.4,286047001.0,P
1656869615.3,286046998.2,P
1656869635.1,286047000.8,N
1656869655.8,286047000.1,N
1656869675.7,286047002.6,N
1656869695.5,286046999.7,N
1656869715.3,286047000.0,N
1656869735.2,286047000.3,N
1656869755.0,286046999.9,N
1656869755.9,286046999.9,N
1656869775.8,286047000.5,N
1656869795.6,286047000.3,N
1656869815.4,286047000.4,N
1656869835.3,286047000.5,N
1656869855.1,286047000.9,N
1656869875.8,286047000.4,N
1656869895.7,286047000.7,N
1656869915.5,286047001.1,N
1656869935.4,286047000.4,N
1656869955.2,286047000.7,N
1656869975.0,286047000.0,N
1656869975.9,286047000.0,N
1656869995.8,286047002.8,Y
1656870015.6,286047002.7,P
1656870035.4,286046999.9,N
1656870055.3,286046999.8,N
1656870075.1,286047000.4,N
1656870095.9,286047002.3,N
1656870115.7,286047002.8,N
1656870135.5,286047001.9,N
1656870155.4,286047001.4,N
1656870175.2,286047001.3,N
1656870195.0,286047003.1,N
1656870195.9,286047003.1,N
1656870215.8,286047006.0,Y
1656870235.6,286047004.3,P
1656870255.5,286047002.1,N
1656870275.3,286047002.2,N
1656870295.1,286047000.2,N
1656870315.9,286047002.8,N
1656870335.7,286047002.4,N
1656870355.5,286046998.2,N
1656870375.4,286046998.6,N
1656870395.2,286046998.3,N
1656870415.1,286046998.4,N
1656870416.0,286046998.4,N
1656870435.8,286046998.4,N
1656870455.6,286046998.5,N
1656870475.5,286046998.7,N
1656870495.3,286046999.2,N
1656870515.1,286046998.8,N
1656870535.9,286046998.9,N
1656870555.7,286046999.4,N
1656870575.5,286046999.5,N
1656870595.4,286046996.5,N
1656870615.2,286046997.1,N
1656870635.1,286046996.7,N
1656870636.0,286046996.7,N
1656870655.8,286046997.4,N
1656870675.6,286046997.5,N
1656870695.5,286046997.7,N
1656870715.3,286046997.7,N
1656870735.1,286046997.5,N
1656870755.9,286046997.1,N
1656870775.7,286046997.0,N
1656870795.6,286046997.0,N
1656870815.4,286046999.3,N
1656870835.2,286046998.7,N
1656870855.1,286046998.7,N
1656870856.0,286046998.7,N
1656870875.8,286046999.1,N
1656870895.6,286046999.2,N
1656870915.5,286046999.3,N
1656870935.3,286047000.6,N
1656870955.2,286047000.3,N
1656870975.9,286046998.4,N
1656870995.7,286046999.3,N
1656871015.6,286046999.3,N
1656871035.4,286046998.7,N
1656871055.2,286046999.4,N
1656871075.1,286046997.0,N
1656871076.0,286046997.0,N
1656871095.8,286046997.2,N
1656871115.7,286046996.6,N
1656871135.5,286046997.9,N
1656871155.3,286046997.9,N
1656871175.2,286046997.1,N
1656871195.0,286046997.7,N
1656871195.9,286046997.7,N
